TimeCST,TemperatureF,Dew PointF,Humidity,Sea Level PressureIn,VisibilityMPH,Wind Direction,Wind SpeedMPH,Gust SpeedMPH,PrecipitationIn,Events,Conditions,WindDirDegrees,DateUTC
12:15 AM,46.9,34.5,62,30.20,10.0,NNE,9.2,-,N/A,,Clear,20,2012-12-29 06:15:00
12:35 AM,46.0,34.7,65,30.20,10.0,NNE,13.8,20.7,N/A,,Clear,20,2012-12-29 06:35:00
12:55 AM,45.7,33.6,63,30.21,10.0,NNE,13.8,-,N/A,,Clear,20,2012-12-29 06:55:00
1:15 AM,45.3,33.1,62,30.21,10.0,NNE,12.7,-,N/A,,Clear,20,2012-12-29 07:15:00
1:35 AM,45.0,32.9,63,30.22,10.0,North,9.2,-,N/A,,Clear,10,2012-12-29 07:35:00
1:55 AM,44.4,32.4,63,30.23,10.0,NNE,15.0,-,N/A,,Clear,20,2012-12-29 07:55:00
2:15 AM,44.6,31.3,60,30.24,10.0,NNE,12.7,-,N/A,,Clear,20,2012-12-29 08:15:00
2:35 AM,44.2,31.5,61,30.25,10.0,NNE,15.0,-,N/A,,Clear,20,2012-12-29 08:35:00
2:55 AM,43.7,31.3,62,30.26,10.0,North,15.0,-,N/A,,Clear,10,2012-12-29 08:55:00
3:15 AM,42.8,30.9,63,30.27,10.0,North,9.2,16.1,N/A,,Clear,350,2012-12-29 09:15:00
3:35 AM,41.0,31.1,68,30.28,10.0,North,12.7,-,N/A,,Clear,350,2012-12-29 09:35:00
3:55 AM,41.0,30.2,65,30.28,10.0,North,13.8,-,N/A,,Clear,360,2012-12-29 09:55:00
4:15 AM,41.0,29.7,64,30.28,10.0,North,16.1,-,N/A,,Clear,360,2012-12-29 10:15:00
4:35 AM,40.8,29.3,64,30.30,10.0,North,10.4,-,N/A,,Clear,360,2012-12-29 10:35:00
4:55 AM,40.5,29.1,64,30.32,10.0,North,8.1,-,N/A,,Clear,350,2012-12-29 10:55:00
5:15 AM,39.7,28.8,65,30.32,10.0,North,8.1,-,N/A,,Clear,350,2012-12-29 11:15:00
5:35 AM,38.7,28.9,68,30.33,10.0,North,4.6,-,N/A,,Clear,350,2012-12-29 11:35:00
5:55 AM,37.8,29.3,72,30.35,10.0,NNW,6.9,-,N/A,,Clear,340,2012-12-29 11:55:00
6:15 AM,37.2,29.1,73,30.36,10.0,North,8.1,-,N/A,,Clear,350,2012-12-29 12:15:00
6:35 AM,36.5,28.8,74,30.37,10.0,North,8.1,-,N/A,,Clear,350,2012-12-29 12:35:00
6:55 AM,35.2,28.2,76,30.38,10.0,North,9.2,-,N/A,,Clear,350,2012-12-29 12:55:00
7:15 AM,34.9,28.0,76,30.38,10.0,North,8.1,-,N/A,,Clear,350,2012-12-29 13:15:00
7:35 AM,36.0,27.5,71,30.40,10.0,North,6.9,-,N/A,,Clear,360,2012-12-29 13:35:00
7:55 AM,36.7,27.1,68,30.40,10.0,North,9.2,-,N/A,,Clear,360,2012-12-29 13:55:00
8:15 AM,37.4,27.1,66,30.40,10.0,North,10.4,-,N/A,,Clear,360,2012-12-29 14:15:00
8:35 AM,38.8,27.0,62,30.41,10.0,North,11.5,-,N/A,,Clear,360,2012-12-29 14:35:00
8:55 AM,41.2,26.4,56,30.41,10.0,North,15.0,-,N/A,,Clear,10,2012-12-29 14:55:00
9:15 AM,43.3,25.3,49,30.42,10.0,NNE,16.1,20.7,N/A,,Clear,20,2012-12-29 15:15:00
9:35 AM,44.1,24.4,46,30.43,10.0,North,15.0,23.0,N/A,,Clear,10,2012-12-29 15:35:00
9:55 AM,44.1,23.9,45,30.43,10.0,NNE,16.1,-,N/A,,Clear,20,2012-12-29 15:55:00
10:15 AM,44.8,23.2,43,30.44,10.0,NNE,16.1,21.9,N/A,,Clear,20,2012-12-29 16:15:00
10:35 AM,45.1,23.2,42,30.45,10.0,NNE,15.0,20.7,N/A,,Clear,30,2012-12-29 16:35:00
10:55 AM,46.0,23.9,42,30.45,10.0,NNE,12.7,-,N/A,,Clear,30,2012-12-29 16:55:00
11:15 AM,47.1,23.9,40,30.47,10.0,North,15.0,-,N/A,,Clear,10,2012-12-29 17:15:00
11:35 AM,47.8,23.7,39,30.45,10.0,NNE,11.5,18.4,N/A,,Clear,30,2012-12-29 17:35:00
11:55 AM,48.7,22.6,36,30.44,10.0,NE,13.8,-,N/A,,Clear,40,2012-12-29 17:55:00
12:15 PM,49.6,21.6,33,30.44,10.0,NE,10.4,-,N/A,,Clear,40,2012-12-29 18:15:00
12:55 PM,52.0,22.6,32,30.43,10.0,NNE,8.1,-,N/A,,Clear,20,2012-12-29 18:55:00
1:15 PM,51.6,22.3,32,30.41,10.0,NNE,6.9,-,N/A,,Clear,30,2012-12-29 19:15:00
1:35 PM,53.1,22.8,31,30.40,10.0,NNE,8.1,-,N/A,,Clear,20,2012-12-29 19:35:00
1:55 PM,54.5,23.0,29,30.39,10.0,NNE,12.7,17.3,N/A,,Clear,30,2012-12-29 19:55:00
2:15 PM,55.4,21.7,27,30.39,10.0,NNE,12.7,19.6,N/A,,Clear,20,2012-12-29 20:15:00
2:35 PM,55.2,20.1,25,30.39,10.0,NE,13.8,-,N/A,,Clear,40,2012-12-29 20:35:00
2:55 PM,54.7,21.0,27,30.39,10.0,NNE,12.7,-,N/A,,Clear,30,2012-12-29 20:55:00
3:15 PM,55.2,21.2,27,30.39,10.0,NNE,10.4,-,N/A,,Clear,20,2012-12-29 21:15:00
3:35 PM,55.6,20.8,26,30.38,10.0,NNE,11.5,-,N/A,,Clear,20,2012-12-29 21:35:00
3:55 PM,55.6,19.8,25,30.38,10.0,NNE,12.7,-,N/A,,Clear,30,2012-12-29 21:55:00
4:15 PM,55.2,20.1,25,30.38,10.0,NNE,10.4,-,N/A,,Clear,20,2012-12-29 22:15:00
4:35 PM,55.0,20.8,26,30.38,10.0,North,10.4,17.3,N/A,,Clear,10,2012-12-29 22:35:00
4:55 PM,54.1,20.8,27,30.38,10.0,NNE,11.5,-,N/A,,Clear,20,2012-12-29 22:55:00
5:15 PM,54.3,21.0,27,30.39,10.0,North,11.5,-,N/A,,Clear,360,2012-12-29 23:15:00
5:35 PM,53.2,21.2,29,30.40,10.0,North,8.1,-,N/A,,Clear,10,2012-12-29 23:35:00
5:55 PM,52.3,21.4,30,30.40,10.0,North,6.9,-,N/A,,Clear,10,2012-12-29 23:55:00
6:15 PM,52.0,22.5,32,30.40,10.0,North,5.8,-,N/A,,Clear,10,2012-12-30 00:15:00
6:35 PM,51.8,23.0,33,30.41,10.0,North,6.9,-,N/A,,Clear,350,2012-12-30 00:35:00
6:55 PM,51.1,23.2,34,30.43,10.0,North,6.9,-,N/A,,Clear,360,2012-12-30 00:55:00
7:15 PM,51.1,25.0,36,30.43,10.0,NNE,6.9,-,N/A,,Clear,20,2012-12-30 01:15:00
7:35 PM,51.3,26.1,38,30.43,10.0,NNE,5.8,-,N/A,,Clear,30,2012-12-30 01:35:00
7:55 PM,50.9,26.4,39,30.43,10.0,NNE,8.1,-,N/A,,Clear,20,2012-12-30 01:55:00
8:15 PM,50.5,25.5,38,30.43,10.0,NNE,8.1,-,N/A,,Clear,20,2012-12-30 02:15:00
8:35 PM,50.0,25.7,39,30.46,10.0,NNE,6.9,-,N/A,,Clear,20,2012-12-30 02:35:00
8:55 PM,49.3,25.9,40,30.46,10.0,NNE,5.8,-,N/A,,Clear,20,2012-12-30 02:55:00
9:15 PM,48.6,26.8,43,30.45,10.0,NNE,3.5,-,N/A,,Clear,30,2012-12-30 03:15:00
9:35 PM,46.8,27.9,48,30.46,10.0,NNE,3.5,-,N/A,,Clear,30,2012-12-30 03:35:00
9:55 PM,45.5,28.8,52,30.45,10.0,NNE,5.8,-,N/A,,Clear,30,2012-12-30 03:55:00
10:15 PM,44.8,29.8,56,30.45,10.0,NE,4.6,-,N/A,,Clear,50,2012-12-30 04:15:00
10:35 PM,45.0,29.3,54,30.45,10.0,NNE,3.5,-,N/A,,Clear,20,2012-12-30 04:35:00
10:55 PM,43.7,30.0,59,30.45,10.0,Calm,Calm,-,N/A,,Clear,0,2012-12-30 04:55:00
11:15 PM,43.9,30.4,59,30.44,10.0,Calm,Calm,-,N/A,,Clear,0,2012-12-30 05:15:00
11:35 PM,44.1,30.2,58,30.44,10.0,Calm,Calm,-,N/A,,Clear,0,2012-12-30 05:35:00
11:55 PM,43.2,29.3,58,30.44,10.0,Calm,Calm,-,N/A,,Clear,0,2012-12-30 05:55:00